Date String (YYYY-MM-DD hh:mm:ss) UTC,Instrument flags,Ambient pressure (hPa),Sample flow (lpm),Bypass flow (lpm),Sample temperature (°C),Ambient temperature (°C),ASC tube jacket temperature (°C),LED temperature (°C),Box temperature (°C),Sample RH (%),Span deviation,Mass concentration (μg/m³),Mass concentration (μg/m³),Mass concentration (μg/m³)
DateTimeUTC,F1_M11,P_M11,Q1_M11,Q2_M11,T1_M11,T2_M11,T3_M11,T4_M11,T5_M11,U1_M11,ZSPAN_M11,X0_M11,X2_M11,X1_M11
2022-07-27 02:00:00,,0828.6,4.99,0.00,30.1,27.7,00.0,38.6,31.5,34.1,0000.0,0017.38,0009.55,0008.43
2022-07-27 02:01:00,,0829.0,5.00,0.00,30.1,27.9,00.0,38.6,31.6,34.4,0000.0,0017.73,0009.55,0008.43
2022-07-27 02:02:00,,0828.8,4.99,0.00,30.1,28.1,00.0,38.6,31.6,34.3,0000.0,0017.58,0009.51,0008.42
2022-07-27 02:03:00,,0828.8,5.01,0.00,30.1,28.3,00.0,38.6,31.7,34.7,0000.0,0017.35,0009.46,0008.42
2022-07-27 02:04:00,,0828.6,4.99,0.00,30.1,28.4,00.0,38.7,31.7,34.8,0000.0,0017.11,0009.40,0008.42
2022-07-27 02:05:00,,0828.7,5.00,0.00,30.1,28.6,00.0,38.7,31.8,34.7,0000.0,0016.99,0009.36,0008.42
2022-07-27 02:06:00,,0828.7,5.01,0.00,30.1,28.4,00.0,38.7,31.8,34.5,0000.0,0017.13,0009.34,0008.43
2022-07-27 02:07:00,,0828.7,5.00,0.00,30.1,27.8,00.0,38.6,31.7,34.5,0000.0,0016.91,0009.36,0008.43
2022-07-27 02:08:00,,0828.6,4.99,0.00,30.0,27.3,00.0,38.6,31.6,34.6,0000.0,0017.60,0009.33,0008.42
2022-07-27 02:09:00,,0828.9,4.99,0.00,30.0,27.2,00.0,38.6,31.4,34.9,0000.0,0017.63,0009.33,0008.43
2022-07-27 02:10:00,,0829.0,5.01,0.00,29.9,27.3,00.0,38.5,31.4,35.0,0000.0,0017.84,0009.36,0008.43
2022-07-27 02:11:00,,0828.7,4.99,0.00,30.0,27.5,00.0,38.5,31.5,34.4,0000.0,0017.96,0009.37,0008.42
2022-07-27 02:12:00,,0829.0,4.99,0.00,30.1,27.7,00.0,38.5,31.6,34.4,0000.0,0017.22,0009.35,0008.41
2022-07-27 02:13:00,,0829.2,5.00,0.00,30.1,27.9,00.0,38.5,31.6,34.3,0000.0,0017.02,0009.36,0008.41
2022-07-27 02:14:00,,0829.1,5.01,0.00,30.2,28.0,00.0,38.6,31.6,34.2,0000.0,0017.66,0009.40,0008.42
2022-07-27 02:15:00,,0829.2,5.01,0.00,30.2,28.2,00.0,38.6,31.7,34.5,0000.0,0017.42,0009.40,0008.43
2022-07-27 02:16:00,,0829.1,5.00,0.00,30.2,28.4,00.0,38.6,31.8,34.2,0000.0,0017.64,0009.39,0008.42
2022-07-27 02:17:00,,0829.0,5.00,0.00,30.2,28.5,00.0,38.6,31.8,34.3,0000.0,0017.89,0009.44,0008.42
2022-07-27 02:18:00,,0828.7,5.00,0.00,30.3,28.5,00.0,38.7,31.8,34.7,0000.0,0018.08,0009.43,0008.43
2022-07-27 02:19:00,,0828.7,5.01,0.00,30.2,27.9,00.0,38.6,31.7,34.6,0000.0,0018.05,0009.44,0008.43
2022-07-27 02:20:00,,0828.8,4.99,0.00,30.2,27.4,00.0,38.6,31.6,34.4,0000.0,0017.87,0009.41,0008.43
2022-07-27 02:21:00,,0829.2,5.01,0.00,30.1,27.2,00.0,38.6,31.5,34.7,0000.0,0017.92,0009.39,0008.43
2022-07-27 02:22:00,,0829.4,5.00,0.00,30.0,27.3,00.0,38.6,31.4,34.6,0000.0,0017.44,0009.36,0008.43
2022-07-27 02:23:00,,0829.0,5.00,0.00,30.0,27.4,00.0,38.6,31.4,35.0,0000.0,0017.67,0009.35,0008.43
2022-07-27 02:24:00,,0829.2,4.99,0.00,30.1,27.6,00.0,38.6,31.5,34.6,0000.0,0018.11,0009.31,0008.43
2022-07-27 02:25:00,,0828.9,5.00,0.00,30.1,27.8,00.0,38.6,31.6,34.7,0000.0,0018.78,0009.31,0008.41
2022-07-27 02:26:00,,0828.8,5.00,0.00,30.2,28.0,00.0,38.6,31.7,34.8,0000.0,0019.62,0009.34,0008.40
2022-07-27 02:27:00,,0828.9,5.00,0.00,30.2,28.2,00.0,38.6,31.7,35.0,0000.0,0018.93,0009.31,0008.39
2022-07-27 02:28:00,,0829.2,5.01,0.00,30.3,28.3,00.0,38.6,31.8,35.2,0000.0,0018.05,0009.30,0008.39
2022-07-27 02:29:00,,0828.9,5.02,0.00,30.6,28.5,00.0,38.7,32.0,35.0,0000.0,0017.75,0009.31,0008.36
2022-07-27 02:30:00,,0828.9,5.00,0.00,30.9,28.6,00.0,38.7,32.2,34.7,0000.0,0016.80,0009.31,0008.35
2022-07-27 02:31:00,,0828.9,5.00,0.00,31.1,28.5,00.0,38.8,32.1,34.4,0000.0,0016.53,0009.30,0008.34
2022-07-27 02:32:00,,0828.9,4.99,0.00,31.2,27.8,00.0,38.8,32.0,34.4,0000.0,0017.14,0009.33,0008.33
2022-07-27 02:33:00,,0828.9,5.01,0.00,31.1,27.3,00.0,38.8,31.9,34.8,0000.0,0017.02,0009.38,0008.34
2022-07-27 02:34:00,,0828.9,4.99,0.00,31.1,27.2,00.0,38.8,31.7,34.8,0000.0,0016.79,0009.35,0008.32
2022-07-27 02:35:00,,0828.9,5.01,0.00,31.0,27.3,00.0,38.9,31.7,35.5,0000.0,0016.24,0009.35,0008.30
2022-07-27 02:36:00,,0828.9,5.00,0.00,31.2,27.5,00.0,38.9,31.9,35.6,0000.0,0016.17,0009.32,0008.28
2022-07-27 02:37:00,,0829.0,5.00,0.00,31.5,27.7,00.0,39.0,32.1,35.1,0000.0,0014.82,0009.22,0008.25
2022-07-27 02:38:00,,0829.1,4.99,0.00,31.8,27.8,00.0,39.0,32.2,34.4,0000.0,0014.51,0009.14,0008.19
2022-07-27 02:39:00,,0829.0,4.99,0.00,32.0,28.0,00.0,39.1,32.2,34.3,0000.0,0014.93,0009.10,0008.12
2022-07-27 02:40:00,,0829.1,5.00,0.00,32.0,28.2,00.0,39.2,32.2,34.2,0000.0,0015.11,0009.00,0008.07
2022-07-27 02:41:00,,0829.1,5.01,0.00,32.1,28.4,00.0,39.3,32.2,33.9,0000.0,0014.94,0008.88,0008.01
2022-07-27 02:42:00,,0829.1,4.99,0.00,32.1,28.5,00.0,39.4,32.3,33.9,0000.0,0014.91,0008.81,0007.94
2022-07-27 02:43:00,,0829.1,4.99,0.00,32.1,28.7,00.0,39.5,32.3,33.9,0000.0,0014.30,0008.69,0007.87
2022-07-27 02:44:00,,0829.1,5.01,0.00,32.1,28.4,00.0,39.6,32.3,33.7,0000.0,0013.88,0008.56,0007.80
2022-07-27 02:45:00,,0829.2,4.99,0.00,32.0,27.7,00.0,39.6,32.1,33.7,0000.0,0013.90,0008.48,0007.73
2022-07-27 02:46:00,,0829.2,5.01,0.00,31.9,27.3,00.0,39.6,32.0,33.9,0000.0,0013.76,0008.38,0007.66
2022-07-27 02:47:00,,0829.2,5.00,0.00,31.8,27.3,00.0,39.6,31.9,34.3,0000.0,0012.85,0008.32,0007.61
2022-07-27 02:48:00,,0829.2,5.00,0.00,31.6,27.4,00.0,39.6,31.9,34.2,0000.0,0012.84,0008.27,0007.56
2022-07-27 02:49:00,,0829.2,5.01,0.00,31.5,27.5,00.0,39.6,31.9,34.2,0000.0,0013.33,0008.26,0007.54
2022-07-27 02:50:00,,0829.3,4.99,0.00,31.5,27.7,00.0,39.6,32.0,34.3,0000.0,0012.74,0008.17,0007.51
2022-07-27 02:51:00,,0829.2,5.00,0.00,31.4,27.9,00.0,39.6,32.0,34.9,0000.0,0012.44,0008.13,0007.48
2022-07-27 02:52:00,,0829.2,5.00,0.00,31.4,28.1,00.0,39.6,32.1,34.6,0000.0,0013.11,0008.13,0007.47
2022-07-27 02:53:00,,0829.2,5.01,0.00,31.5,28.3,00.0,39.6,32.1,34.6,0000.0,0013.05,0008.12,0007.46
2022-07-27 02:54:00,,0829.2,5.01,0.00,31.5,28.5,00.0,39.6,32.2,35.2,0000.0,0013.07,0008.14,0007.45
2022-07-27 02:55:00,,0829.3,5.00,0.00,31.6,28.6,00.0,39.6,32.3,35.1,0000.0,0012.92,0008.13,0007.44
2022-07-27 02:56:00,,0829.3,5.00,0.00,31.9,28.7,00.0,39.6,32.5,35.6,0000.0,0012.91,0008.17,0007.42
2022-07-27 02:57:00,,0829.3,5.00,0.00,32.2,28.3,00.0,39.6,32.6,34.7,0000.0,0013.19,0008.16,0007.38
2022-07-27 02:58:00,,0829.4,4.99,0.00,32.3,27.6,00.0,39.6,32.4,34.0,0000.0,0014.20,0008.15,0007.32
2022-07-27 02:59:00,,0829.5,5.01,0.00,32.3,27.3,00.0,39.6,32.3,33.8,0000.0,0014.33,0008.13,0007.28
